H1 CPF 2 NER 2021 7 21 9 202 01 glonass140 H2 1903001 9140 44299 2021 7 21 0 0 0 2021 7 24 23 45 0 900 1 1 0 0 0 1 H9 10 0 59416 0.00000 0 12846333.189 1862445.213 21987136.905 10 0 59416 900.00000 0 10963204.833 3869052.050 22734763.967 10 0 59416 1800.00000 0 9190447.991 6057586.633 23042271.020 10 0 59416 2700.00000 0 7575419.082 8377442.436 22903785.733 10 0 59416 3600.00000 0 6155923.106 10770438.846 22322034.463 10 0 59416 4500.00000 0 4958801.868 13173036.608 21308286.758 10 0 59416 5400.00000 0 3998992.780 15518787.975 19882139.575 10 0 59416 6300.00000 0 3279096.163 17740921.826 18071144.994 10 0 59416 7200.00000 0 2789468.074 19774958.104 15910287.839 10 0 59416 8100.00000 0 2508834.215 21561244.596 13441322.102 10 0 59416 9000.00000 0 2405399.084 23047311.839 10711977.581 10 0 59416 9900.00000 0 2438404.158 24189948.785 7775050.635 10 0 59416 10800.00000 0 2560070.061 24956913.038 4687395.228 10 0 59416 11700.00000 0 2717841.559 25328204.004 1508832.509 10 0 59416 12600.00000 0 2856841.200 25296845.038 -1699000.752 10 0 59416 13500.00000 0 2922428.214 24869140.832 -4873843.203 10 0 59416 14400.00000 0 2862754.439 24064398.029 -7954016.538 10 0 59416 15300.00000 0 2631208.569 22914119.463 -10879626.055 10 0 59416 16200.00000 0 2188644.342 21460704.620 -13593730.460 10 0 59416 17100.00000 0 1505296.869 19755709.749 -16043457.545 10 0 59416 18000.00000 0 562304.283 17857739.922 -18181043.178 10 0 59416 18900.00000 0 -647231.773 15830060.969 -19964772.568 10 0 59416 19800.00000 0 -2117693.889 13738031.293 -21359804.636 10 0 59416 20700.00000 0 -3830930.432 11646461.380 -22338862.526 10 0 59416 21600.00000 0 -5756773.902 9617011.976 -22882776.096 10 0 59416 22500.00000 0 -7854076.277 7705740.342 -22980865.085 10 0 59416 23400.00000 0 -10072219.423 5960897.839 -22631154.900 10 0 59416 24300.00000 0 -12353038.391 4421071.413 -21840420.297 10 0 59416 25200.00000 0 -14633077.691 3113746.926 -20624055.703 10 0 59416 26100.00000 0 -16846086.211 2054354.418 -19005774.471 10 0 59416 27000.00000 0 -18925646.122 1245834.755 -17017142.854 10 0 59416 27900.00000 0 -20807825.231 678744.845 -14696957.867 10 0 59416 28800.00000 0 -22433740.957 331895.679 -12090481.634 10 0 59416 29700.00000 0 -23751927.857 173494.526 -9248547.754 10 0 59416 30600.00000 0 -24720408.972 162741.091 -6226557.963 10 0 59416 31500.00000 0 -25308383.816 251808.123 -3083389.863 10 0 59416 32400.00000 0 -25497462.444 388120.543 119761.828 10 0 59416 33300.00000 0 -25282394.404 516834.663 3320586.661 10 0 59416 34200.00000 0 -24671263.059 583410.874 6456877.870 10 0 59416 35100.00000 0 -23685138.565 536169.573 9467745.177 10 0 59416 36000.00000 0 -22357205.694 328721.344 12294796.875 10 0 59416 36900.00000 0 -20731404.739 -77831.696 14883267.982 10 0 59416 37800.00000 0 -18860643.931 -713016.289 17183072.987 10 0 59416 38700.00000 0 -16804659.236 -1595509.054 19149763.593 10 0 59416 39600.00000 0 -14627611.614 -2732119.813 20745374.056 10 0 59416 40500.00000 0 -12395521.997 -4117279.383 21939139.346 10 0 59416 41400.00000 0 -10173650.213 -5733053.011 22708073.877 10 0 59416 42300.00000 0 -8023925.841 -7549678.739 23037401.262 10 0 59416 43200.00000 0 -6002536.148 -9526608.662 22920828.249 10 0 59416 44100.00000 0 -4157769.393 -11614010.459 22360658.691 10 0 59416 45000.00000 0 -2528201.107 -13754667.842 21367745.986 10 0 59416 45900.00000 0 -1141296.726 -15886202.458 19961285.133 10 0 59416 46800.00000 0 -12486.932 -17943526.572 18168448.024 10 0 59416 47700.00000 0 855247.127 -19861426.254 16023868.277 10 0 59416 48600.00000 0 1471262.415 -21577169.261 13568984.384 10 0 59416 49500.00000 0 1856621.562 -23033030.357 10851252.449 10 0 59416 50400.00000 0 2042965.900 -24178629.671 7923242.315 10 0 59416 51300.00000 0 2070941.074 -24972986.932 4841633.124 10 0 59416 52200.00000 0 1988241.040 -25386205.589 1666126.466 10 0 59416 53100.00000 0 1847352.329 -25400715.708 -1541702.665 10 0 59416 54000.00000 0 1703093.491 -25012022.492 -4719595.507 10 0 59416 54900.00000 0 1610053.584 -24228927.679 -7805816.915 10 0 59416 55800.00000 0 1620038.306 -23073212.956 -10740356.863 10 0 59416 56700.00000 0 1779632.531 -21578797.121 -13466102.347 10 0 59416 57600.00000 0 2127983.539 -19790400.882 -15929956.308 10 0 59416 58500.00000 0 2694900.223 -17761774.130 -18083880.914 10 0 59416 59400.00000 0 3499350.481 -15553559.094 -19885844.125 10 0 59416 60300.00000 0 4548422.378 -13230878.347 -21300650.223 10 0 59416 61200.00000 0 5836795.009 -10860748.485 -22300637.262 10 0 59416 62100.00000 0 7346743.526 -8509427.761 -22866227.102 10 0 59416 63000.00000 0 9048680.073 -6239808.814 -22986316.613 10 0 59416 63900.00000 0 10902209.479 -4108965.962 -22658501.791 10 0 59416 64800.00000 0 12857656.651 -2165959.848 -21889129.924 10 0 59416 65700.00000 0 14858002.375 -449991.425 -20693178.366 10 0 59416 66600.00000 0 16841146.588 1011017.525 -19093962.030 10 0 59416 67500.00000 0 18742404.112 2201358.363 -17122675.231 10 0 59416 68400.00000 0 20497127.695 3117945.769 -14817776.901 10 0 59416 69300.00000 0 22043347.575 3770188.137 -12224231.587 10 0 59416 70200.00000 0 23324315.945 4179325.360 -9392621.667 10 0 59416 71100.00000 0 24290848.779 4377263.949 -6378148.935 10 0 59416 72000.00000 0 24903366.041 4404960.790 -3239546.197 10 0 59416 72900.00000 0 25133544.345 4310426.193 -37921.302 10 0 59416 73800.00000 0 24965512.848 4146432.849 3164442.667 10 0 59416 74700.00000 0 24396542.687 3968029.609 6305306.422 10 0 59416 75600.00000 0 23437202.054 3829966.917 9323688.101 10 0 59416 76500.00000 0 22110971.644 3784143.952 12161047.367 10 0 59416 77400.00000 0 20453338.027 3877186.021 14762416.690 10 0 59416 78300.00000 0 18510404.251 4148254.684 17077458.265 10 0 59416 79200.00000 0 16337076.860 4627182.691 19061426.836 10 0 59416 80100.00000 0 13994905.754 5333011.690 20676020.938 10 0 59416 81000.00000 0 11549667.127 6272993.497 21890107.606 10 0 59416 81900.00000 0 9068789.612 7442096.228 22680308.207 10 0 59416 82800.00000 0 6618729.744 8823035.534 23031435.679 10 0 59416 83700.00000 0 4262404.204 10386829.610 22936776.230 10 0 59416 84600.00000 0 2056783.489 12093855.207 22398211.204 10 0 59416 85500.00000 0 50744.911 13895361.391 21426177.448 10 0 59417 0.00000 0 -1716728.197 15735379.203 20039467.224 10 0 59417 900.00000 0 -3217928.055 17552949.320 18264870.935 10 0 59417 1800.00000 0 -4437329.475 19284576.305 16136669.442 10 0 59417 2700.00000 0 -5371984.785 20866808.940 13695983.798 10 0 59417 3600.00000 0 -6031392.365 22238840.572 10989994.198 10 0 59417 4500.00000 0 -6436843.509 23345021.664 8071041.513 10 0 59417 5400.00000 0 -6620275.546 24137180.306 4995627.405 10 0 59417 6300.00000 0 -6622678.954 24576653.558 1823331.102 10 0 59417 7200.00000 0 -6492125.093 24635943.976 -1384337.098 10 0 59417 8100.00000 0 -6281497.327 24299930.877 -4565123.986 10 0 59417 9000.00000 0 -6046021.118 23566584.035 -7657240.529 10 0 59417 9900.00000 0 -5840697.487 22447148.172 -10600564.239 10 0 59417 10800.00000 0 -5717748.822 20965788.657 -13337813.111 10 0 59417 11700.00000 0 -5724185.895 19158711.460 -15815667.728 10 0 59417 12600.00000 0 -5899600.159 17072792.687 -17985818.819 10 0 59417 13500.00000 0 -6274276.220 14763773.768 -19805919.095 10 0 59417 14400.00000 0 -6867706.007 12294096.894 -21240419.936 10 0 59417 15300.00000 0 -7687569.268 9730470.655 -22261275.773 10 0 59417 16200.00000 0 -8729225.329 7141267.430 -22848501.643 10 0 59417 17100.00000 0 -9975739.365 4593861.190 -22990572.412 10 0 59417 18000.00000 0 -11398443.620 2152017.207 -22684655.167 10 0 59417 18900.00000 0 -12958011.239 -126557.126 -21936669.827 10 0 59417 19800.00000 0 -14605998.430 -2192397.903 -20761176.324 10 0 59417 20700.00000 0 -16286790.493 -4006115.293 -19181090.334 10 0 59417 21600.00000 0 -17939869.934 -5539792.911 -17227232.995 10 0 59417 22500.00000 0 -19502310.944 -6777898.022 -14937723.515 10 0 59417 23400.00000 0 -20911394.599 -7717665.468 -12357226.894 10 0 59417 24300.00000 0 -22107233.970 -8368940.727 -9536072.051 10 0 59417 25200.00000 0 -23035297.775 -8753490.647 -6529258.403 10 0 59417 26100.00000 0 -23648725.535 -8903813.032 -3395371.403 10 0 59417 27000.00000 0 -23910336.286 -8861497.712 -195429.363 10 0 59417 27900.00000 0 -23794246.072 -8675210.693 3008314.731 10 0 59417 28800.00000 0 -23287026.348 -8398388.773 6153591.847 10 0 59417 29700.00000 0 -22388355.186 -8086744.029 9179331.342 10 0 59417 30600.00000 0 -21111134.804 -7795685.142 12026847.031 10 0 59417 31500.00000 0 -19481071.598 -7577765.444 14640971.550 10 0 59417 32400.00000 0 -17535737.411 -7480265.828 16971117.366 10 0 59417 33300.00000 0 -15323152.268 -7543014.351 18972244.633 10 0 59417 34200.00000 0 -12899948.486 -7796533.801 20605718.259 10 0 59417 35100.00000 0 -10329192.914 -8260594.336 21840039.130 10 0 59417 36000.00000 0 -7677957.597 -8943231.104 22651437.005 10 0 59417 36900.00000 0 -5014739.026 -9840267.246 23024315.240 10 0 59417 37800.00000 0 -2406831.708 -10935361.751 22951540.256 10 0 59417 38700.00000 0 82236.870 -12200580.092 22434571.322 10 0 59417 39600.00000 0 2395105.486 -13597464.133 21483428.870 10 0 59417 40500.00000 0 4482715.349 -15078557.478 20116502.181 10 0 59417 41400.00000 0 6306096.678 -16589323.807 18360199.874 10 0 59417 42300.00000 0 7837733.215 -18070379.544 16248449.189 10 0 59417 43200.00000 0 9062449.460 -19459949.198 13822052.638 10 0 59417 44100.00000 0 9977784.675 -20696442.225 11127913.020 10 0 59417 45000.00000 0 10593838.601 -21721044.792 8218140.369 10 0 59417 45900.00000 0 10932595.534 -22480218.716 5149056.651 10 0 59417 46800.00000 0 11026754.982 -22928003.086 1980116.181 10 0 59417 47700.00000 0 10918117.633 -23028021.678 -1227238.244 10 0 59417 48600.00000 0 10655594.224 -22755111.013 -4410761.982 10 0 59417 49500.00000 0 10292920.888 -22096499.243 -7508615.257 10 0 59417 50400.00000 0 9886177.324 -21052484.621 -10460566.324 10 0 59417 51300.00000 0 9491212.772 -19636583.000 -13209167.402 10 0 59417 52200.00000 0 9161089.132 -17875136.100 -15700879.880 10 0 59417 53100.00000 0 8943650.162 -15806395.008 -17887126.075 10 0 59417 54000.00000 0 8879320.698 -13479115.565 -19725246.248 10 0 59417 54900.00000 0 8999230.313 -10950722.968 -21179341.378 10 0 59417 55800.00000 0 9323742.240 -8285121.409 -22220984.377 10 0 59417 56700.00000 0 9861451.312 -5550239.559 -22829785.138 10 0 59417 57600.00000 0 10608694.748 -2815414.090 -22993797.704 10 0 59417 58500.00000 0 11549597.827 -148720.454 -22709760.960 10 0 59417 59400.00000 0 12656653.667 2385637.579 -21983167.685 10 0 59417 60300.00000 0 13891813.510 4729770.548 -20828160.168 10 0 59417 61200.00000 0 15208041.983 6834275.914 -19267254.184 10 0 59417 62100.00000 0 16551271.848 8660050.032 -17330896.622 10 0 59417 63000.00000 0 17862675.554 10179664.125 -15056865.468 10 0 59417 63900.00000 0 19081157.139 11378247.383 -12489524.267 10 0 59417 64800.00000 0 20145958.591 12253841.414 -9678946.187 10 0 59417 65700.00000 0 20999269.743 12817212.865 -6679925.607 10 0 59417 66600.00000 0 21588730.677 13091134.079 -3550897.657 10 0 59417 67500.00000 0 21869720.314 13109164.430 -352787.930 10 0 59417 68400.00000 0 21807334.178 12913986.162 2852183.983 10 0 59417 69300.00000 0 21377967.810 12555367.327 6001722.604 10 0 59417 70200.00000 0 20570439.350 12087839.991 9034671.707 10 0 59417 71100.00000 0 19386604.612 11568193.535 11892202.270 10 0 59417 72000.00000 0 17841439.556 11052890.089 14518949.862 10 0 59417 72900.00000 0 15962587.645 10595511.865 16864079.725 10 0 59417 73800.00000 0 13789391.778 10244348.039 18882259.647 10 0 59417 74700.00000 0 11371451.951 10040222.359 20534522.850 10 0 59417 75600.00000 0 8766769.014 10014652.013 21789005.726 10 0 59417 76500.00000 0 6039551.547 10188413.991 22621547.790 10 0 59417 77400.00000 0 3257776.325 10570577.974 23016143.866 10 0 59417 78300.00000 0 490602.364 11158045.341 22965241.289 10 0 59417 79200.00000 0 -2194255.964 11935612.935 22469877.574 10 0 59417 80100.00000 0 -4733089.797 12876558.761 21539656.632 10 0 59417 81000.00000 0 -7068586.664 13943725.395 20192564.269 10 0 59417 81900.00000 0 -9151954.456 15091056.594 18454626.253 10 0 59417 82800.00000 0 -10944692.180 16265523.959 16359414.857 10 0 59417 83700.00000 0 -12419935.575 17409364.414 13947412.280 10 0 59417 84600.00000 0 -13563322.828 18462536.237 11265241.851 10 0 59417 85500.00000 0 -14373344.923 19365291.967 8364780.457 10 0 59418 0.00000 0 -14861166.384 20060761.276 5302167.938 10 0 59418 900.00000 0 -15049923.739 20497435.547 2136730.920 10 0 59418 1800.00000 0 -14973531.074 20631450.579 -1070157.977 10 0 59418 2700.00000 0 -14675041.923 20428569.174 -4256265.493 10 0 59418 3600.00000 0 -14204636.641 19865780.782 -7359703.957 10 0 59418 4500.00000 0 -13617319.301 18932447.924 -10320135.211 10 0 59418 5400.00000 0 -12970421.491 17630949.735 -13079948.447 10 0 59418 6300.00000 0 -12321018.536 15976793.142 -15585388.481 10 0 59418 7200.00000 0 -11723367.839 13998184.805 -17787611.643 10 0 59418 8100.00000 0 -11226478.406 11735079.646 -19643647.935 10 0 59418 9000.00000 0 -10871915.251 9237743.910 -21117249.856 10 0 59418 9900.00000 0 -10691932.678 6564891.477 -22179610.436 10 0 59418 10800.00000 0 -10708016.532 3781470.167 -22809935.746 10 0 59418 11700.00000 0 -10929898.234 956189.807 -22995860.002 10 0 59418 12600.00000 0 -11355083.342 -1841105.070 -22733694.523 10 0 59418 13500.00000 0 -11968915.482 -4542108.332 -22028505.191 10 0 59418 14400.00000 0 -12745173.594 -7082659.600 -20894016.480 10 0 59418 15300.00000 0 -13647177.619 -9405176.775 -19352343.674 10 0 59418 16200.00000 0 -14629355.922 -11460812.177 -17433558.403 10 0 59418 17100.00000 0 -15639207.944 -13211242.344 -15175096.055 10 0 59418 18000.00000 0 -16619578.442 -14630017.038 -12621017.016 10 0 59418 18900.00000 0 -17511146.385 -15703411.857 -9821136.731 10 0 59418 19800.00000 0 -18255022.236 -16430750.037 -6830042.376 10 0 59418 20700.00000 0 -18795342.773 -16824181.607 -3706016.428 10 0 59418 21600.00000 0 -19081752.829 -16907931.338 -509889.310 10 0 59418 22500.00000 0 -19071668.322 -16717049.484 2696155.337 10 0 59418 23400.00000 0 -18732224.565 -16295720.317 5849798.243 10 0 59418 24300.00000 0 -18041827.557 -15695202.132 8889800.323 10 0 59418 25200.00000 0 -16991243.095 -14971487.536 11757192.480 10 0 59418 26100.00000 0 -15584178.377 -14182784.270 14396415.974 10 0 59418 27000.00000 0 -13837332.351 -13386923.665 16756391.493 10 0 59418 27900.00000 0 -11779913.302 -12638806.261 18791496.973 10 0 59418 28800.00000 0 -9452644.463 -11987991.757 20462436.251 10 0 59418 29700.00000 0 -6906299.369 -11476533.845 21736983.254 10 0 59418 30600.00000 0 -4199827.756 -11137149.621 22590588.968 10 0 59418 31500.00000 0 -1398149.405 -10991799.019 23006841.072 10 0 59418 32400.00000 0 1430293.674 -11050732.440 22977768.878 10 0 59418 33300.00000 0 4216126.775 -11312045.323 22503988.896 10 0 59418 34200.00000 0 6891668.259 -11761757.515 21594688.961 10 0 59418 35100.00000 0 9393484.908 -12374413.857 20267451.550 10 0 59418 36000.00000 0 11664773.085 -13114181.019 18547919.429 10 0 59418 36900.00000 0 13657468.876 -13936395.357 16469309.408 10 0 59418 37800.00000 0 15334001.322 -14789497.946 14071782.513 10 0 59418 38700.00000 0 16668617.145 -15617276.898 11401681.341 10 0 59418 39600.00000 0 17648222.567 -16361324.051 8510647.917 10 0 59418 40500.00000 0 18272707.511 -16963603.897 5454637.666 10 0 59418 41400.00000 0 18554738.612 -17369027.397 2292847.231 10 0 59418 42300.00000 0 18519029.331 -17527922.552 -913423.997 10 0 59418 43200.00000 0 18201117.335 -17398297.348 -4101957.316 10 0 59418 44100.00000 0 17645699.936 -16947798.756 -7210820.502 10 0 59418 45000.00000 0 16904597.165 -16155283.769 -10179572.371 10 0 59418 45900.00000 0 16034428.007 -15011934.376 -12950442.473 10 0 59418 46800.00000 0 15094097.702 -13521867.220 -15469462.316 10 0 59418 47700.00000 0 14142202.370 -11702209.975 -17687525.345 10 0 59418 48600.00000 0 13234460.983 -9582638.788 -19561354.165 10 0 59418 49500.00000 0 12421283.790 -7204393.953 -21054355.355 10 0 59418 50400.00000 0 11745580.743 -4618813.200 -22137344.261 10 0 59418 51300.00000 0 11240903.375 -1885442.397 -22789124.905 10 0 59418 52200.00000 0 10929999.509 930198.507 -22996913.001 10 0 59418 53100.00000 0 10823842.668 3759101.607 -22756593.146 10 0 59418 54000.00000 0 10921177.809 6531405.851 -22072804.695 10 0 59418 54900.00000 0 11208603.005 9179070.631 -20958854.220 10 0 59418 55800.00000 0 11661183.764 11638476.382 -19436455.976 10 0 59418 56700.00000 0 12243573.848 13852843.487 -17535305.368 10 0 59418 57600.00000 0 12911594.729 15774368.362 -15292493.795 10 0 59418 58500.00000 0 13614206.079 17365987.500 -12751776.688 10 0 59418 59400.00000 0 14295782.943 18602696.139 -9962709.577 10 0 59418 60300.00000 0 14898601.991 19472367.207 -6979669.865 10 0 59418 61200.00000 0 15365430.426 19976037.501 -3860784.497 10 0 59418 62100.00000 0 15642106.763 20127650.839 -666785.601 10 0 59418 63000.00000 0 15680003.298 19953271.123 2540182.417 10 0 59418 63900.00000 0 15438265.406 19489800.660 5697779.812 10 0 59418 64800.00000 0 14885732.653 18783260.053 8744687.898 10 0 59418 65700.00000 0 14002460.565 17886704.189 11621800.617 10 0 59418 66600.00000 0 12780779.199 16857863.865 14273367.809 10 0 59418 67500.00000 0 11225844.414 15756613.550 16648068.258 10 0 59418 68400.00000 0 9355659.199 14642372.409 18699992.419 10 0 59418 69300.00000 0 7200564.661 13571547.824 20389516.818 10 0 59418 70200.00000 0 4802222.181 12595128.097 21684054.684 10 0 59418 71100.00000 0 2212129.035 11756524.160 22558669.928 10 0 59418 72000.00000 0 -510271.197 11089749.278 22996544.185 10 0 59418 72900.00000 0 -3299805.911 10618011.338 22989289.470 10 0 59418 73800.00000 0 -6088027.936 10352775.065 22537101.588 10 0 59418 74700.00000 0 -8805807.080 10293332.130 21648752.164 10 0 59418 75600.00000 0 -11385953.436 10426896.202 20341419.732 10 0 59418 76500.00000 0 -13765765.835 10729218.596 18640362.979 10 0 59418 77400.00000 0 -15889401.668 11165698.809 16578441.741 10 0 59418 78300.00000 0 -17709971.515 11692943.968 14195493.971 10 0 59418 79200.00000 0 -19191272.883 12260712.630 11537579.313 10 0 59418 80100.00000 0 -20309091.725 12814162.360 8656102.490 10 0 59418 81000.00000 0 -21052017.961 13296307.556 5606831.978 10 0 59418 81900.00000 0 -21421740.888 13650584.891 2448831.624 10 0 59418 82800.00000 0 -21432811.721 13823418.672 -756675.074 10 0 59418 83700.00000 0 -21111882.597 13766677.871 -3947486.720 10 0 59418 84600.00000 0 -20496453.277 13439920.522 -7061629.275 10 0 59418 85500.00000 0 -19633177.481 12812329.588 -10038561.255 10 0 59419 0.00000 0 -18575799.572 11864256.991 -12820355.144 10 0 59419 900.00000 0 -17382808.150 10588308.065 -15352831.775 10 0 59419 1800.00000 0 -16114905.153 8989919.800 -17586623.993 10 0 59419 2700.00000 0 -14832397.801 7087403.766 -19478149.090 10 0 59419 3600.00000 0 -13592623.033 4911451.725 -20990469.507 10 0 59419 4500.00000 0 -12447514.230 2504121.002 -22094024.355 10 0 59419 5400.00000 0 -11441413.150 -82659.154 -22767216.707 10 0 59419 6300.00000 0 -10609220.143 -2788999.460 -22996844.498 10 0 59419 7200.00000 0 -9974961.218 -5549301.718 -22778365.956 10 0 59419 8100.00000 0 -9550832.868 -8294755.818 -22115993.896 10 0 59419 9000.00000 0 -9336765.135 -10955978.609 -21022616.595 10 0 59419 9900.00000 0 -9320521.342 -13465684.327 -19519546.543 10 0 59419 10800.00000 0 -9478329.860 -15761274.896 -17636101.852 10 0 59419 11700.00000 0 -9776020.571 -17787241.633 -15409028.584 10 0 59419 12600.00000 0 -10170616.968 -19497277.715 -12881775.622 10 0 59419 13500.00000 0 -10612315.313 -20856013.180 -10103636.806 10 0 59419 14400.00000 0 -11046765.664 -21840300.188 -7128777.858 10 0 59419 15300.00000 0 -11417556.746 -22439995.550 -4015168.182 10 0 59419 16200.00000 0 -11668797.943 -22658208.966 -823439.507 10 0 59419 17100.00000 0 -11747687.838 -22511008.331 2384305.169 10 0 59419 18000.00000 0 -11606959.544 -22026596.435 5545707.904 10 0 59419 18900.00000 0 -11207098.699 -21243995.925 8599372.782 10 0 59419 19800.00000 0 -10518240.075 -20211299.897 11486059.239 10 0 59419 20700.00000 0 -9521662.779 -18983563.605 14149828.200 10 0 59419 21600.00000 0 -8210821.359 -17620427.351 16539119.031 10 0 59419 22500.00000 0 -6591869.802 -16183571.295 18607737.124 10 0 59419 23400.00000 0 -4683656.956 -14734109.256 20315733.961 10 0 59419 24300.00000 0 -2517193.771 -13330030.375 21630164.142 10 0 59419 25200.00000 0 -134614.597 -12023794.769 22525706.307 10 0 59419 26100.00000 0 2412324.518 -10860182.356 22985137.568 10 0 59419 27000.00000 0 5064148.912 -9874483.050 22999653.862 10 0 59419 27900.00000 0 7755892.032 -9091102.105 22569031.217 10 0 59419 28800.00000 0 10419554.933 -8522637.203 21701625.665 10 0 59419 29700.00000 0 12986698.515 -8169464.435 20414212.142 10 0 59419 30600.00000 0 15391063.063 -8019849.479 18731665.278 10 0 59419 31500.00000 0 17571108.279 -8050578.880 16686487.648 10 0 59419 32400.00000 0 19472370.213 -8228084.952 14318193.481 10 0 59419 33300.00000 0 21049538.523 -8510017.571 11672558.427 10 0 59419 34200.00000 0 22268168.530 -8847197.594 8800748.430 10 0 59419 35100.00000 0 23105957.203 -9185870.560 5758343.094 10 0 59419 36000.00000 0 23553529.804 -9470166.590 2604271.094 10 0 59419 36900.00000 0 23614703.801 -9644663.299 -600322.725 10 0 59419 37800.00000 0 23306218.327 -9656943.757 -3793257.340 10 0 59419 38700.00000 0 22656939.575 -9460041.110 -6912520.164 10 0 59419 39600.00000 0 21706574.556 -9014665.759 -9897472.769 10 0 59419 40500.00000 0 20503946.407 -8291119.608 -12690034.028 10 0 59419 41400.00000 0 19104903.110 -7270814.676 -15235817.123 10 0 59419 42300.00000 0 17569947.200 -5947329.770 -17485197.456 10 0 59419 43200.00000 0 15961686.065 -4326958.269 -19394289.865 10 0 59419 44100.00000 0 14342210.247 -2428721.364 -20925815.249 10 0 59419 45000.00000 0 12770510.477 -283843.897 -22049838.767 10 0 59419 45900.00000 0 11300042.541 2065287.462 -22744364.485 10 0 59419 46800.00000 0 9976543.025 4566641.804 -22995774.118 10 0 59419 47700.00000 0 8836188.292 7160475.188 -22799100.667 10 0 59419 48600.00000 0 7904174.548 9781595.555 -22158131.105 10 0 59419 49500.00000 0 7193778.831 12361867.255 -21085335.665 10 0 59419 50400.00000 0 6705940.337 14832850.463 -19601624.850 10 0 59419 51300.00000 0 6429379.225 17128465.042 -17735938.803 10 0 59419 52200.00000 0 6341246.999 19187567.163 -15524677.106 10 0 59419 53100.00000 0 6408279.874 20956330.420 -13010980.498 10 0 59419 54000.00000 0 6588404.921 22390331.613 -10243879.088 10 0 59419 54900.00000 0 6832729.401 23456253.812 -7277324.455 10 0 59419 55800.00000 0 7087827.362 24133135.695 -4169125.625 10 0 59419 56700.00000 0 7298224.947 24413115.563 -979810.788 10 0 59419 57600.00000 0 7408977.582 24301640.094 2228561.827 10 0 59419 58500.00000 0 7368228.568 23817130.667 5393619.546 10 0 59419 59400.00000 0 7129639.823 22990123.212 8453892.688 10 0 59419 60300.00000 0 6654591.346 21861919.677 11350009.546 10 0 59419 61200.00000 0 5914056.304 20482809.642 14025845.316 10 0 59419 62100.00000 0 4890072.751 18909938.306 16429602.891 10 0 59419 63000.00000 0 3576750.329 17204911.345 18514805.252 10 0 59419 63900.00000 0 1980770.095 15431237.560 20241181.184 10 0 59419 64800.00000 0 121356.847 13651716.206 21575428.640 10 0 59419 65700.00000 0 -1970274.814 11925877.439 22491842.602 10 0 59419 66600.00000 0 -4251977.695 10307581.545 22972796.871 10 0 59419 67500.00000 0 -6672189.121 8842875.395 23009072.064 10 0 59419 68400.00000 0 -9171845.893 7568193.583 22600024.717 10 0 59419 69300.00000 0 -11686618.921 6508977.366 21753595.048 10 0 59419 70200.00000 0 -14149376.523 5678767.168 20486153.642 10 0 59419 71100.00000 0 -16492776.133 5078805.093 18822189.823 10 0 59419 72000.00000 0 -18651878.618 4698163.034 16793847.143 10 0 59419 72900.00000 0 -20566678.493 4514390.492 14440313.932 10 0 59419 73800.00000 0 -22184446.247 4494654.902 11807079.312 10 0 59419 74700.00000 0 -23461786.280 4597326.978 8945067.655 10 0 59419 75600.00000 0 -24366325.197 4773945.016 5909666.742 10 0 59419 76500.00000 0 -24877960.013 4971476.125 2759667.059 10 0 59419 77400.00000 0 -24989613.559 5134779.677 -443868.215 10 0 59419 78300.00000 0 -24707464.672 5209169.288 -3638781.408 10 0 59419 79200.00000 0 -24050642.387 5142965.030 -6763024.283 10 0 59419 80100.00000 0 -23050395.780 4889927.459 -9755864.260 10 0 59419 81000.00000 0 -21748773.135 4411469.482 -12559069.205 10 0 59419 81900.00000 0 -20196864.920 3678551.038 -15118047.242 10 0 59419 82800.00000 0 -18452683.629 2673174.578 -17382918.531 10 0 59419 83700.00000 0 -16578769.115 1389416.008 -19309497.392 10 0 59419 84600.00000 0 -14639619.814 -166054.868 -20860164.742 10 0 59419 85500.00000 0 -12699057.901 -1973988.640 -22004612.929 99